TimeAKDT,TemperatureF,Dew PointF,Humidity,Sea Level PressureIn,VisibilityMPH,Wind Direction,Wind SpeedMPH,Gust SpeedMPH,PrecipitationIn,Events,Conditions,WindDirDegrees,DateUTC
12:16 AM,-16.6,-9999,N/A,29.96,10.0,Calm,Calm,-,N/A,,Clear,0,2012-11-02 08:16:00
12:36 AM,-16.6,-9999,N/A,29.96,10.0,Calm,Calm,-,N/A,,Clear,0,2012-11-02 08:36:00
12:56 AM,-16.6,-9999,N/A,29.96,10.0,Calm,Calm,-,N/A,,Clear,0,2012-11-02 08:56:00
1:16 AM,-16.6,-9999,N/A,29.95,10.0,Calm,Calm,-,N/A,,Scattered Clouds,0,2012-11-02 09:16:00
1:36 AM,-16.6,-9999,N/A,29.95,10.0,Calm,Calm,-,N/A,,Overcast,0,2012-11-02 09:36:00
1:56 AM,-14.8,-9999,N/A,29.94,10.0,Calm,Calm,-,N/A,,Mostly Cloudy,0,2012-11-02 09:56:00
2:16 AM,-14.8,-9999,N/A,29.94,10.0,Calm,Calm,-,N/A,,Scattered Clouds,0,2012-11-02 10:16:00
2:36 AM,-14.8,-9999,N/A,29.93,10.0,Calm,Calm,-,N/A,,Scattered Clouds,0,2012-11-02 10:36:00
2:56 AM,-13.0,-18.4,77,29.93,10.0,Calm,Calm,-,N/A,,Mostly Cloudy,0,2012-11-02 10:56:00
3:16 AM,-13.0,-16.6,84,29.92,10.0,Calm,Calm,-,N/A,,Mostly Cloudy,0,2012-11-02 11:16:00
3:36 AM,-11.2,-9999,N/A,29.91,10.0,Calm,Calm,-,N/A,,Mostly Cloudy,0,2012-11-02 11:36:00
3:56 AM,-11.2,-9999,N/A,29.91,10.0,Calm,Calm,-,N/A,,Scattered Clouds,0,2012-11-02 11:56:00
4:16 AM,-11.2,-9999,N/A,29.90,10.0,Calm,Calm,-,N/A,,Partly Cloudy,0,2012-11-02 12:16:00
4:36 AM,-11.2,-16.6,77,29.89,10.0,Calm,Calm,-,N/A,,Partly Cloudy,0,2012-11-02 12:36:00
4:56 AM,-11.2,-20.2,64,29.89,9.0,Calm,Calm,-,N/A,,Partly Cloudy,0,2012-11-02 12:56:00
5:16 AM,-11.2,-25.6,49,29.88,10.0,Calm,Calm,-,N/A,,Mostly Cloudy,0,2012-11-02 13:16:00
5:36 AM,-11.2,-9999,N/A,29.88,10.0,Calm,Calm,-,N/A,,Mostly Cloudy,0,2012-11-02 13:36:00
5:56 AM,-11.2,-29.2,41,29.87,10.0,Calm,Calm,-,N/A,,Mostly Cloudy,0,2012-11-02 13:56:00
6:16 AM,-9.4,-9999,N/A,29.87,10.0,Calm,Calm,-,N/A,,Partly Cloudy,0,2012-11-02 14:16:00
6:36 AM,-9.4,-9999,N/A,29.86,10.0,Calm,Calm,-,N/A,,Clear,0,2012-11-02 14:36:00
6:56 AM,-11.2,-9999,N/A,29.86,10.0,Calm,Calm,-,N/A,,Partly Cloudy,0,2012-11-02 14:56:00
7:16 AM,-9.4,-22.0,54,29.86,10.0,Calm,Calm,-,N/A,,Mostly Cloudy,0,2012-11-02 15:16:00
7:36 AM,-11.2,-11.2,100,29.86,10.0,Calm,Calm,-,N/A,,Mostly Cloudy,0,2012-11-02 15:36:00
7:56 AM,-11.2,-23.8,54,29.86,10.0,Calm,Calm,-,N/A,,Scattered Clouds,0,2012-11-02 15:56:00
8:16 AM,-9.4,-11.2,92,29.85,10.0,Calm,Calm,-,N/A,,Mostly Cloudy,0,2012-11-02 16:16:00
8:36 AM,-11.2,-23.8,54,29.85,10.0,Calm,Calm,-,N/A,,Overcast,0,2012-11-02 16:36:00
8:56 AM,-9.4,-9.4,100,29.85,10.0,Calm,Calm,-,N/A,,Scattered Clouds,0,2012-11-02 16:56:00
9:16 AM,-11.2,-9999,N/A,29.85,10.0,Calm,Calm,-,N/A,,Clear,0,2012-11-02 17:16:00
9:36 AM,-11.2,-9999,N/A,29.84,9.0,Calm,Calm,-,N/A,,Clear,0,2012-11-02 17:36:00
9:56 AM,-9.4,-9999,N/A,29.84,10.0,North,4.6,-,N/A,,Scattered Clouds,10,2012-11-02 17:56:00
10:16 AM,-11.2,-25.6,49,29.84,7.0,Calm,Calm,-,N/A,,Partly Cloudy,0,2012-11-02 18:16:00
10:36 AM,-11.2,-22.0,59,29.83,10.0,North,4.6,-,N/A,,Clear,10,2012-11-02 18:36:00
10:56 AM,-13.0,-27.4,49,29.84,10.0,Calm,Calm,-,N/A,,Partly Cloudy,0,2012-11-02 18:56:00
11:16 AM,-11.2,-11.2,100,29.84,9.0,Calm,Calm,-,N/A,,Mostly Cloudy,0,2012-11-02 19:16:00
11:36 AM,-9.4,-27.4,41,29.84,10.0,North,4.6,-,N/A,,Overcast,350,2012-11-02 19:36:00
11:56 AM,-7.6,-9999,N/A,29.84,10.0,Calm,Calm,-,N/A,,Overcast,0,2012-11-02 19:56:00
12:16 PM,-7.6,-9999,N/A,29.84,10.0,Calm,Calm,-,N/A,,Mostly Cloudy,0,2012-11-02 20:16:00
12:36 PM,-7.6,-29.2,34,29.83,10.0,Calm,Calm,-,N/A,,Partly Cloudy,0,2012-11-02 20:36:00
12:56 PM,-7.6,-20.2,54,29.83,10.0,Calm,Calm,-,N/A,,Scattered Clouds,0,2012-11-02 20:56:00
1:16 PM,-5.8,-16.6,60,29.83,10.0,Calm,Calm,-,N/A,,Mostly Cloudy,0,2012-11-02 21:16:00
1:36 PM,-5.8,-16.6,60,29.83,10.0,Calm,Calm,-,N/A,,Overcast,0,2012-11-02 21:36:00
1:56 PM,-4.0,-11.2,71,29.82,10.0,Calm,Calm,-,N/A,,Mostly Cloudy,0,2012-11-02 21:56:00
2:16 PM,-2.2,-13.0,60,29.81,10.0,Calm,Calm,-,N/A,,Partly Cloudy,0,2012-11-02 22:16:00
2:36 PM,-2.2,-13.0,60,29.81,10.0,Calm,Calm,-,N/A,,Mostly Cloudy,0,2012-11-02 22:36:00
2:56 PM,-0.4,-74.2,4,29.81,10.0,Calm,Calm,-,N/A,,Overcast,0,2012-11-02 22:56:00
3:16 PM,1.4,-29.2,23,29.80,10.0,North,5.8,-,N/A,,Overcast,10,2012-11-02 23:16:00
3:36 PM,12.2,-2.2,53,29.80,10.0,North,12.7,18.4,N/A,,Overcast,360,2012-11-02 23:36:00
3:56 PM,12.2,-5.8,45,29.80,10.0,North,10.4,19.6,N/A,,Overcast,10,2012-11-02 23:56:00
4:16 PM,12.2,-5.8,45,29.80,10.0,North,9.2,-,N/A,,Scattered Clouds,360,2012-11-03 00:16:00
4:36 PM,10.4,-4.0,52,29.80,10.0,North,13.8,17.3,N/A,,Mostly Cloudy,10,2012-11-03 00:36:00
4:56 PM,10.4,-5.8,48,29.80,10.0,North,15.0,20.7,N/A,,Mostly Cloudy,360,2012-11-03 00:56:00
5:16 PM,10.4,-5.8,48,29.80,10.0,North,13.8,21.9,N/A,,Mostly Cloudy,360,2012-11-03 01:16:00
5:36 PM,10.4,-5.8,48,29.80,10.0,North,16.1,20.7,N/A,,Mostly Cloudy,360,2012-11-03 01:36:00
5:56 PM,8.6,-7.6,48,29.81,10.0,North,12.7,-,N/A,,Mostly Cloudy,360,2012-11-03 01:56:00
6:16 PM,8.6,-7.6,48,29.81,10.0,North,11.5,-,N/A,,Mostly Cloudy,10,2012-11-03 02:16:00
6:36 PM,8.6,-9.4,44,29.82,10.0,NNE,11.5,18.4,N/A,,Scattered Clouds,20,2012-11-03 02:36:00
6:56 PM,8.6,-7.6,48,29.82,10.0,North,12.7,-,N/A,,Mostly Cloudy,10,2012-11-03 02:56:00
7:16 PM,6.8,-7.6,52,29.82,10.0,North,10.4,16.1,N/A,,Overcast,360,2012-11-03 03:16:00
7:36 PM,6.8,-7.6,52,29.82,10.0,North,11.5,-,N/A,,Overcast,10,2012-11-03 03:36:00
7:56 PM,6.8,-9.4,48,29.82,10.0,North,11.5,17.3,N/A,,Overcast,10,2012-11-03 03:56:00
8:16 PM,6.8,-11.2,44,29.83,10.0,NNE,10.4,-,N/A,,Overcast,20,2012-11-03 04:16:00
8:36 PM,6.8,-9999,N/A,29.83,10.0,NNE,9.2,-,N/A,,Overcast,20,2012-11-03 04:36:00
8:56 PM,6.8,-11.2,44,29.83,10.0,NNE,10.4,-,N/A,,Overcast,30,2012-11-03 04:56:00
9:16 PM,6.8,-9.4,48,29.83,10.0,NNE,9.2,16.1,N/A,,Overcast,20,2012-11-03 05:16:00
9:36 PM,6.8,-9.4,48,29.83,10.0,NNE,11.5,18.4,N/A,,Overcast,20,2012-11-03 05:36:00
9:56 PM,6.8,-9999,N/A,29.83,10.0,NNE,12.7,16.1,N/A,,Overcast,20,2012-11-03 05:56:00
10:16 PM,6.8,-9.4,48,29.83,10.0,NNE,9.2,17.3,N/A,,Overcast,30,2012-11-03 06:16:00
10:36 PM,6.8,-11.2,44,29.83,10.0,NNE,10.4,18.4,N/A,,Overcast,20,2012-11-03 06:36:00
11:16 PM,6.8,-7.6,52,29.84,10.0,NE,11.5,-,N/A,,Mostly Cloudy,40,2012-11-03 07:16:00
11:36 PM,3.2,-14.8,43,29.84,10.0,NE,9.2,-,N/A,,Mostly Cloudy,50,2012-11-03 07:36:00
11:56 PM,3.2,-16.6,39,29.84,10.0,NE,8.1,-,N/A,,Scattered Clouds,50,2012-11-03 07:56:00